Flag for Portugal Weather past 2 weeks in Portimão, Portugal

Now
66 °F

Clear.


Feels Like: 66 °F
Forecast: 64 / 80 °F
Wind: 7 mph from West

Location: Faro / Aeroporto

Current Time: Sep 3, 2014 at 8:46:08 AM

Latest Report: Sep 3, 2014 at 8:00 AM


Visibility: 10 mi

Pressure: 29.95 "Hg

Humidity: 94%

Dew point: 64 °F

Location of PortimãoLocation

Historic Weather in Portimão — Graph

°F

Portimão temperature yesterday

Maximum temperature yesterday: 77 °F (at 12:30 AM)
Minimum temperature yesterday: 66 °F (at 7:00 AM)
Average temperature yesterday: 73 °F

Past Weeks' High & Low Weather Summary

 TemperatureHumidityPressure
High90 °F (Aug 29, 12:01 PM)100% (Sep 3, 7:30 AM)30.07 "Hg (Sep 3, 7:30 AM)
Low61 °F (Aug 19, 7:00 AM)18% (Aug 25, 9:00 PM)29.86 "Hg (Sep 2, 5:00 AM)
Average74 °F60%29.98 "Hg
* Reported Aug 19 7:00 AM — Sep 3 7:30 AM, Portimão, Weather by CustomWeather, © 2014

Note: Actual official high and low records may vary slightly from our data, if they occured in-between our weather recording intervals... More about our weather records

Advertising

Portimão weather history for previous 24 hours

 ConditionsComfort  
Time TempWeatherWind HumidityBarometerVisibility
7:30 AM
Sep 3
64 °FClear.7 mph100%29.95 "Hg10 mi
7:00 AM64 °FClear.7 mph94%29.95 "Hg10 mi
6:30 AM64 °FClear.3 mph94%29.95 "Hg10 mi
6:00 AM66 °FClear.5 mph94%29.92 "Hg10 mi
5:30 AM66 °FClear.5 mph94%29.95 "Hg10 mi
5:00 AM66 °FClear.5 mph88%29.95 "Hg10 mi
4:30 AM66 °FClear.6 mph94%29.95 "Hg10 mi
4:00 AM66 °FClear.6 mph94%29.95 "Hg10 mi
3:30 AM68 °FClear.5 mph88%29.95 "Hg10 mi
3:00 AM66 °FClear.7 mph94%29.95 "Hg10 mi
2:00 AM68 °FClear.7 mph88%29.95 "Hg10 mi
1:30 AM68 °FClear.8 mph88%29.95 "Hg10 mi
1:00 AM68 °FClear.8 mph88%29.95 "Hg10 mi
12:30 AM70 °FClear.8 mph83%29.95 "Hg10 mi
12:00 AM70 °FClear.7 mph83%29.95 "Hg10 mi
11:30 PM
Sep 2
72 °FClear.8 mph78%29.95 "Hg10 mi
11:00 PM68 °FClear.9 mph94%29.92 "Hg10 mi
10:30 PM70 °FClear.12 mph83%29.92 "Hg10 mi
10:00 PM70 °FClear.10 mph83%29.92 "Hg10 mi
9:30 PM70 °FClear.16 mph83%29.92 "Hg10 mi
9:00 PM70 °FClear.17 mph88%29.89 "Hg10 mi
8:30 PM70 °FSunny.16 mph83%29.89 "Hg10 mi
8:00 PM70 °FSunny.15 mph83%29.89 "Hg10 mi
7:30 PM72 °FSunny.17 mph78%29.89 "Hg10 mi
7:00 PM72 °FSunny.17 mph83%29.89 "Hg10 mi
6:30 PM72 °FSunny.16 mph78%29.89 "Hg10 mi
6:00 PM72 °FSunny.16 mph83%29.89 "Hg10 mi
5:30 PM73 °FSunny.15 mph78%29.89 "Hg10 mi
5:00 PM73 °FSunny.15 mph78%29.89 "Hg10 mi
4:30 PM75 °FSunny.14 mph74%29.89 "Hg10 mi
4:00 PM77 °FSunny.12 mph69%29.92 "Hg10 mi
3:30 PM75 °FSunny.13 mph74%29.92 "Hg10 mi
3:00 PM75 °FPassing clouds.10 mph74%29.92 "HgN/A
2:30 PM75 °FPartly sunny.8 mph74%29.92 "HgN/A
2:00 PM73 °FPartly sunny.8 mph78%29.92 "HgN/A
1:30 PM75 °FPassing clouds.8 mph78%29.92 "HgN/A
1:00 PM75 °FPassing clouds.10 mph78%29.92 "HgN/A
12:30 PM73 °FPassing clouds.9 mph83%29.92 "HgN/A
12:00 PM75 °FPassing clouds.8 mph78%29.95 "HgN/A
11:30 AM75 °FPassing clouds.6 mph83%29.92 "HgN/A
11:00 AM75 °FScattered clouds.6 mph78%29.92 "HgN/A
10:30 AM75 °FScattered clouds.5 mph78%29.92 "HgN/A
10:00 AM75 °FPassing clouds.3 mph78%29.92 "HgN/A
9:30 AM75 °FScattered clouds.2 mph78%29.92 "HgN/A
9:00 AM72 °FScattered clouds.2 mph83%29.92 "HgN/A
8:30 AM72 °FPassing clouds.3 mph83%29.92 "HgN/A
8:00 AM68 °FPassing clouds.2 mph88%29.92 "HgN/A
Weather by CustomWeather, © 2014

See weather overviewHow to use our weather pages